Wind_Speed
9 9 9 9 8 9 10 11 11 11 11 13 13 13 12 11 9 8 6 5 5 5 7 9 11 11 10 9 8 7 5 3 2 2 3 4 5 6 7 8 8 8 8 8 8 7 7 6 5
10 10 9 9 9 10 11 11 11 12 13 15 14 13 12 12 10 9 7 6 6 6 8 10 12 12 11 10 9 8 6 4 2 0 2 3 5 6 7 8 8 9 9 8 8 7 6 6 5
10 10 9 10 10 11 12 12 13 13 15 15 15 14 13 12 11 10 8 7 7 7 9 11 13 13 12 11 10 9 6 5 2 1 1 3 4 6 7 8 9 9 9 8 8 7 6 6 5
10 11 10 10 10 11 11 12 13 15 15 16 16 16 14 12 11 10 10 8 7 8 10 12 14 14 13 12 11 10 7 5 3 2 2 2 4 6 7 8 8 9 9 8 7 7 6 6 4
11 11 11 11 11 11 11 12 13 15 15 17 17 16 15 13 11 11 10 8 7 8 11 14 16 15 14 13 11 10 8 6 5 3 3 3 4 5 7 8 8 8 8 8 7 7 6 5 4
11 11 11 11 12 11 11 12 14 16 17 18 17 16 15 14 12 11 10 9 9 9 12 15 17 17 16 14 12 11 9 7 5 4 3 3 4 5 6 7 8 8 8 7 6 6 6 5 5
12 12 10 11 11 11 12 13 15 17 17 18 18 17 15 14 13 12 11 10 10 10 12 15 17 17 17 15 13 12 10 8 6 5 4 4 4 5 6 7 8 7 7 7 6 6 5 5 5
12 12 10 11 11 12 13 14 15 17 18 18 18 18 16 15 14 13 12 10 10 10 12 15 17 18 18 16 14 13 11 8 7 6 5 5 5 5 6 7 7 7 7 6 5 5 5 5 5
12 11 11 11 11 12 14 15 16 17 18 18 18 18 18 16 15 14 13 11 11 11 13 15 18 19 18 18 16 13 12 9 8 7 6 5 5 6 6 7 7 7 6 5 5 5 5 5 4
12 11 10 11 10 11 14 15 16 16 17 19 20 20 20 18 16 15 13 11 11 12 13 14 17 20 19 19 17 14 12 10 9 8 8 7 6 6 7 7 7 6 6 5 5 5 4 4 4
11 10 10 10 10 11 13 15 16 16 17 19 21 21 20 18 16 14 13 11 12 12 14 16 17 19 20 19 17 15 13 11 9 8 8 8 7 7 7 6 6 5 5 5 5 4 4 4 4
10 9 8 8 9 10 12 15 15 17 18 19 20 21 21 19 16 14 13 10 11 12 15 17 19 20 20 20 18 16 14 12 10 9 9 8 7 6 6 5 5 5 4 4 4 4 4 3 3
9 8 8 8 8 10 12 14 15 17 18 19 21 21 22 19 17 14 11 9 10 11 15 19 20 20 20 20 19 17 15 13 11 10 9 8 7 6 5 5 6 5 4 3 3 3 2 2 2
10 9 9 9 9 11 12 14 16 18 19 20 21 21 21 17 16 13 10 9 9 11 15 19 22 22 21 21 20 18 16 13 12 10 9 9 7 6 6 5 5 4 3 2 2 2 1 1 2
10 10 11 11 11 12 13 14 17 18 20 21 21 21 19 17 15 13 11 9 9 11 14 18 20 22 21 20 20 19 16 14 12 11 10 9 7 7 6 5 5 4 3 2 2 1 1 1 1
12 12 12 13 12 13 14 15 17 18 19 20 22 21 17 16 15 13 11 10 8 11 14 17 19 22 21 20 19 18 16 15 14 12 11 9 8 7 6 6 5 4 3 2 1 1 1 1 1
14 13 13 13 13 14 15 16 17 18 20 21 21 20 18 16 14 12 9 6 6 11 15 17 19 20 21 21 20 20 18 15 14 13 11 9 8 8 6 6 5 4 3 2 2 2 1 1 1
15 14 15 15 15 15 15 16 17 19 20 20 20 19 17 16 14 11 8 6 6 10 15 17 18 19 21 20 21 20 18 17 16 14 12 10 9 9 8 7 6 5 4 3 2 2 1 1 1
17 16 15 15 15 15 15 16 17 17 19 19 19 18 16 15 13 10 8 6 6 10 14 16 18 19 20 20 20 19 19 18 17 14 12 11 10 10 9 8 7 6 5 4 3 2 2 1 1
18 17 16 16 16 16 15 15 16 17 18 18 17 17 15 14 13 11 9 5 5 9 13 16 18 19 19 19 20 20 20 18 17 15 13 12 12 11 11 9 8 7 6 5 4 2 2 1 1
18 18 17 17 16 15 15 14 16 18 17 16 16 15 14 13 12 12 9 6 5 8 11 16 19 20 20 20 20 20 19 18 16 15 14 13 13 13 12 10 9 8 6 5 5 3 3 2 1
18 18 17 16 16 15 15 16 15 16 17 16 16 14 13 12 11 10 9 6 4 7 10 14 18 19 20 20 20 20 20 18 16 15 14 13 14 14 12 11 10 9 7 6 6 5 4 3 3
18 18 18 17 16 15 15 16 14 15 16 16 16 14 12 12 11 9 8 5 3 6 9 12 15 17 18 18 19 20 19 18 16 15 15 15 15 14 13 12 11 10 9 8 7 7 6 5 5
19 18 18 17 16 15 15 15 13 14 15 15 14 13 12 11 10 8 6 3 2 4 8 11 14 17 18 18 18 19 18 17 16 15 15 15 14 14 14 13 12 11 10 10 9 9 8 8 7
19 19 19 18 16 14 14 14 12 13 14 14 13 12 12 12 10 7 5 3 1 4 7 10 13 16 17 17 18 17 17 16 15 15 15 14 14 14 14 13 13 12 12 11 11 11 11 11 10
20 20 19 18 16 14 13 12 11 11 13 14 12 11 11 11 8 5 3 2 1 2 5 8 12 14 16 17 18 16 16 15 14 14 15 14 14 14 14 14 14 13 13 13 13 13 13 13 14
20 21 20 19 18 16 12 10 8 10 12 13 11 11 11 10 8 5 3 2 1 2 4 6 9 12 14 15 17 16 15 15 15 15 15 14 15 15 15 15 15 15 15 15 16 16 16 16 17
19 20 21 20 20 17 13 11 10 10 11 12 11 11 10 9 8 6 4 2 1 1 3 5 7 10 12 13 14 14 14 14 14 15 15 16 16 16 16 17 17 17 17 18 18 18 19 19 20
21 21 20 20 20 19 16 11 11 12 12 12 11 11 10 8 7 5 4 2 1 2 3 4 6 7 10 12 13 13 14 14 14 16 16 17 17 17 18 19 19 20 20 20 21 21 22 22 23
24 23 22 21 20 20 18 12 12 12 12 11 11 11 10 8 6 6 4 4 3 3 3 4 5 6 8 11 12 13 14 15 16 17 18 18 19 19 20 20 21 22 23 23 24 24 25 26 26
Wind_Direction
354 349 345 346 346 351 353 350 349 348 355 357 360 356 353 347 341 331 309 291 280 256 232 220 213 205 199 191 180 171 164 151 111 54 24 10 5 2 359 357 357 357 359 359 359 1 4 7 13
347 343 340 340 342 346 349 346 348 354 359 358 358 355 352 347 339 327 309 286 271 250 230 219 210 206 205 196 187 183 179 172 157 38 8 4 359 355 354 354 353 352 355 356 356 359 0 2 5
340 338 334 336 340 342 345 345 349 357 358 359 358 353 347 342 337 324 306 287 268 249 231 221 216 209 206 201 195 190 187 184 187 245 315 346 348 346 348 349 348 348 350 352 353 355 356 357 360
334 332 331 334 339 339 343 350 356 359 359 360 357 351 344 337 328 319 307 289 266 244 229 223 221 211 207 203 200 196 195 196 207 241 277 315 334 338 341 341 342 344 346 346 348 348 351 353 355
329 330 328 333 338 337 342 353 359 1 358 356 353 347 340 334 327 317 304 284 266 243 231 225 219 212 209 205 201 199 200 206 216 236 256 284 313 327 331 333 336 338 340 341 342 344 346 353 351
323 326 327 333 336 338 345 355 358 357 353 350 346 341 333 328 324 316 303 279 259 248 234 225 218 213 211 206 201 198 201 204 212 234 253 277 302 315 320 324 328 332 334 335 337 340 345 348 344
320 325 329 333 334 339 349 355 358 355 351 348 343 338 331 323 318 314 304 278 258 248 232 222 216 211 208 204 201 201 201 205 216 230 253 271 286 299 311 316 320 324 328 330 332 337 340 339 335
323 321 327 331 335 341 347 352 353 351 349 345 341 338 333 322 317 313 302 277 263 249 232 222 217 213 206 202 201 201 201 205 217 230 250 260 274 288 299 307 311 313 318 321 324 330 331 328 326
323 318 323 328 333 341 346 349 349 348 345 344 341 337 332 326 317 311 300 279 259 248 234 221 217 214 209 203 201 201 203 207 217 232 242 249 265 278 289 301 304 306 310 313 319 324 327 323 318
322 319 323 327 332 341 345 345 347 347 346 345 341 336 331 327 319 310 299 274 256 249 236 221 216 213 208 203 200 202 205 211 220 232 238 246 258 270 282 292 297 302 305 308 313 320 320 317 311
321 318 323 326 331 343 344 342 345 345 345 344 341 336 331 324 317 310 296 273 255 246 228 219 214 207 206 205 201 203 207 213 222 227 231 243 253 267 276 284 293 297 300 304 308 308 306 302 300
311 314 312 317 326 338 344 342 342 342 344 342 340 337 332 325 315 309 296 276 255 244 227 217 212 204 205 205 203 205 208 214 219 223 231 240 250 261 267 276 286 292 295 300 301 301 292 286 282
305 302 302 306 317 330 338 341 339 340 342 341 338 335 333 327 319 312 294 275 256 241 222 215 204 202 204 206 203 203 206 213 217 224 230 237 244 251 260 269 279 284 285 288 296 298 286 273 256
298 291 290 297 310 321 332 339 338 340 340 339 337 333 332 331 326 321 307 281 253 229 215 208 203 202 202 204 206 204 205 211 217 223 229 233 238 248 253 261 272 272 271 277 282 281 276 240 227
284 281 284 291 301 313 326 337 341 340 339 339 339 336 335 334 330 324 314 295 263 229 209 202 201 200 200 205 210 208 209 214 218 220 227 230 234 241 244 249 253 251 250 259 264 266 245 220 217
274 274 278 290 297 309 322 334 339 339 339 336 337 337 336 333 329 323 312 298 261 220 204 200 199 197 201 204 207 208 209 212 216 218 222 224 228 231 233 235 232 233 235 236 235 212 198 194 197
270 271 279 286 295 308 321 335 338 338 338 335 335 337 336 334 331 325 314 293 240 209 200 197 199 202 204 208 210 208 207 209 213 216 219 220 224 224 220 219 216 214 210 199 179 155 138 142 152
266 269 276 283 294 307 318 330 334 336 336 335 333 336 337 336 334 328 316 291 234 205 196 194 199 202 204 208 209 210 208 210 212 216 218 220 220 217 215 215 212 205 202 197 192 189 188 172 159
263 269 274 282 295 307 320 326 331 335 335 335 335 335 336 339 337 331 321 294 238 209 203 199 197 198 202 206 208 207 206 207 208 214 217 219 217 214 211 211 210 207 205 203 201 206 205 186 178
262 266 273 283 295 307 319 327 331 335 333 334 335 336 336 338 341 337 328 301 243 211 206 203 198 196 201 203 205 204 203 204 207 210 214 215 214 211 209 210 210 209 208 209 209 205 210 203 194
261 266 274 286 296 307 317 327 334 337 337 335 336 337 336 334 335 336 332 312 245 214 207 203 200 200 201 201 201 200 201 206 207 209 212 212 213 212 211 210 212 212 210 214 216 213 220 216 203
257 267 276 286 295 307 318 325 330 334 340 341 341 339 336 336 336 338 339 325 248 212 202 198 198 199 200 201 201 201 203 205 206 210 213 214 215 215 213 212 215 216 219 224 228 230 233 232 226
257 263 273 282 291 302 314 321 327 330 335 337 339 341 337 336 336 334 331 322 248 204 197 197 195 196 197 199 198 199 200 203 208 212 215 216 215 216 216 216 219 222 226 231 236 239 240 239 240
254 260 272 280 288 298 309 317 327 329 334 335 335 340 338 335 333 329 326 319 237 199 196 196 197 196 195 196 195 197 200 204 209 214 215 214 214 217 218 219 223 227 231 235 239 242 244 246 249
252 259 269 277 284 295 305 314 327 331 337 339 335 337 337 332 327 323 321 318 250 206 193 194 194 194 194 197 198 200 202 204 209 213 213 215 219 220 222 224 228 233 237 239 243 246 249 252 255
247 256 266 277 284 293 300 313 329 330 336 341 338 339 339 337 330 323 328 325 292 186 182 187 188 193 196 199 200 202 203 206 209 213 215 221 224 225 228 230 233 238 242 245 248 251 254 258 260
241 252 264 272 281 291 298 309 324 327 334 340 339 340 343 341 338 333 329 335 345 167 171 179 188 196 199 200 201 204 207 210 212 216 222 225 227 230 234 237 240 244 247 250 253 255 258 261 264
239 248 256 265 275 284 292 300 313 322 325 327 329 330 332 334 336 337 340 330 291 197 184 184 192 198 199 200 203 208 212 214 219 225 230 232 235 239 242 244 246 249 252 255 258 259 262 264 266
236 242 252 261 269 280 288 300 306 308 311 319 322 321 321 319 325 332 324 301 257 221 207 198 195 200 203 204 208 215 220 223 228 232 236 239 241 245 249 250 251 253 256 259 261 263 265 267 268
240 242 249 258 267 275 284 297 301 303 307 311 314 312 315 310 306 316 308 282 254 238 228 214 207 211 212 214 217 223 229 232 235 238 244 249 250 251 253 255 257 260 261 262 264 265 267 269 270
Height
5885 5884 5883 5883 5884 5883 5881 5880 5878 5877 5875 5875 5874 5872 5871 5871 5872 5874 5872 5871 5871 5871 5872 5874 5875 5877 5878 5879 5880 5881 5882 5884 5885 5886 5887 5887 5888 5888 5888 5888 5888 5888 5888 5888 5888 5887 5887 5888 5888
5884 5884 5884 5884 5883 5882 5881 5880 5878 5876 5875 5874 5872 5871 5870 5869 5869 5869 5868 5869 5869 5870 5871 5872 5874 5876 5877 5878 5879 5881 5882 5883 5884 5885 5886 5887 5887 5888 5888 5888 5888 5888 5888 5888 5888 5888 5888 5888 5888
5885 5884 5884 5883 5882 5882 5881 5879 5877 5875 5874 5872 5871 5870 5869 5868 5867 5867 5867 5867 5868 5868 5869 5871 5873 5874 5875 5877 5878 5880 5881 5882 5884 5885 5886 5886 5887 5887 5887 5887 5887 5887 5887 5888 5888 5888 5888 5888 5888
5885 5884 5884 5884 5882 5881 5880 5878 5876 5874 5873 5871 5869 5868 5867 5867 5866 5865 5865 5865 5865 5866 5867 5869 5871 5872 5874 5875 5877 5879 5880 5882 5883 5884 5885 5885 5886 5886 5887 5887 5887 5887 5887 5887 5887 5887 5887 5887 5888
5885 5884 5884 5882 5881 5880 5879 5877 5875 5873 5871 5870 5868 5867 5865 5865 5864 5863 5863 5863 5863 5864 5865 5867 5869 5870 5872 5874 5876 5878 5879 5881 5882 5883 5884 5885 5885 5886 5886 5886 5887 5887 5887 5887 5887 5887 5887 5887 5887
5885 5884 5883 5882 5881 5880 5878 5876 5874 5872 5870 5869 5867 5866 5864 5863 5861 5861 5860 5860 5861 5862 5863 5865 5866 5868 5870 5872 5875 5877 5878 5880 5881 5882 5883 5884 5885 5885 5885 5886 5886 5886 5886 5886 5886 5886 5886 5887 5887
5885 5884 5882 5881 5880 5878 5877 5874 5872 5870 5869 5868 5866 5864 5862 5860 5859 5858 5858 5857 5858 5859 5860 5862 5863 5866 5868 5871 5873 5875 5877 5879 5880 5882 5882 5883 5884 5884 5885 5885 5885 5885 5886 5886 5886 5886 5886 5886 5886
5884 5884 5881 5880 5879 5877 5876 5873 5871 5869 5868 5867 5865 5862 5860 5859 5857 5856 5855 5854 5855 5856 5857 5859 5861 5863 5865 5868 5871 5873 5875 5877 5879 5880 5882 5882 5883 5884 5884 5884 5884 5885 5885 5885 5885 5885 5885 5885 5885
5883 5883 5881 5880 5878 5877 5874 5872 5870 5868 5867 5865 5862 5860 5858 5856 5854 5853 5852 5852 5852 5853 5854 5856 5858 5861 5864 5866 5869 5871 5874 5876 5878 5879 5881 5882 5882 5883 5883 5883 5883 5883 5884 5884 5884 5885 5885 5884 5884
5883 5882 5881 5880 5878 5876 5874 5872 5870 5867 5865 5863 5860 5858 5855 5852 5851 5850 5849 5848 5848 5850 5852 5853 5856 5859 5862 5864 5867 5870 5872 5875 5876 5878 5879 5880 5881 5882 5882 5882 5882 5882 5883 5883 5883 5884 5884 5884 5884
5881 5881 5880 5879 5877 5875 5873 5871 5869 5867 5864 5861 5859 5855 5852 5849 5847 5846 5845 5845 5845 5846 5848 5850 5853 5856 5860 5863 5865 5868 5871 5873 5874 5876 5878 5879 5880 5880 5881 5881 5881 5881 5882 5882 5882 5883 5883 5883 5883
5881 5880 5879 5878 5876 5874 5872 5870 5868 5865 5863 5860 5856 5852 5849 5846 5844 5842 5841 5841 5841 5842 5844 5847 5850 5854 5857 5861 5864 5866 5869 5871 5873 5875 5876 5877 5878 5879 5879 5880 5880 5880 5881 5881 5881 5882 5882 5882 5882
5879 5878 5877 5876 5875 5873 5871 5869 5866 5864 5861 5858 5854 5851 5847 5843 5840 5838 5837 5837 5837 5838 5841 5844 5847 5851 5855 5859 5862 5864 5867 5869 5871 5873 5875 5876 5877 5878 5878 5878 5879 5880 5880 5880 5880 5881 5881 5882 5882
5877 5877 5876 5875 5873 5872 5870 5868 5865 5862 5859 5856 5852 5849 5845 5841 5838 5836 5835 5834 5834 5835 5837 5840 5844 5848 5852 5856 5859 5862 5865 5867 5870 5872 5873 5875 5875 5876 5877 5877 5878 5879 5879 5879 5880 5880 5881 5881 5881
5876 5875 5875 5873 5872 5870 5869 5867 5864 5861 5857 5854 5850 5846 5843 5839 5836 5834 5832 5831 5831 5832 5834 5837 5841 5845 5849 5853 5857 5860 5863 5866 5868 5870 5872 5873 5874 5875 5876 5876 5877 5878 5878 5878 5879 5880 5880 5881 5881
5874 5873 5873 5872 5870 5868 5868 5866 5863 5859 5855 5852 5848 5844 5841 5838 5835 5832 5830 5829 5828 5829 5832 5835 5839 5843 5847 5850 5854 5857 5860 5864 5866 5868 5870 5871 5873 5874 5874 5875 5876 5877 5878 5878 5879 5880 5880 5880 5881
5871 5871 5870 5870 5868 5866 5865 5863 5860 5857 5853 5850 5846 5843 5840 5837 5834 5831 5828 5827 5827 5828 5830 5833 5837 5840 5844 5848 5851 5854 5857 5861 5864 5866 5868 5870 5871 5872 5873 5874 5875 5876 5877 5878 5879 5879 5880 5880 5881
5869 5868 5868 5867 5866 5864 5862 5860 5858 5855 5851 5848 5844 5841 5838 5835 5833 5830 5827 5826 5826 5827 5829 5831 5834 5837 5841 5845 5849 5852 5855 5858 5862 5864 5866 5868 5869 5871 5872 5874 5875 5876 5877 5878 5879 5879 5880 5880 5880
5866 5866 5865 5864 5863 5862 5860 5858 5856 5853 5849 5846 5843 5840 5837 5834 5831 5829 5826 5825 5824 5825 5827 5829 5832 5835 5839 5843 5846 5850 5853 5856 5859 5862 5864 5866 5868 5870 5872 5873 5874 5875 5876 5877 5878 5879 5880 5880 5880
5863 5863 5863 5862 5861 5860 5858 5856 5854 5851 5848 5845 5842 5839 5836 5833 5830 5828 5826 5824 5823 5824 5825 5827 5830 5834 5837 5841 5844 5848 5851 5855 5857 5860 5862 5864 5866 5868 5871 5872 5874 5875 5876 5877 5878 5879 5879 5879 5880
5860 5860 5860 5860 5859 5858 5856 5855 5852 5849 5846 5843 5841 5838 5835 5833 5830 5827 5825 5822 5822 5822 5823 5825 5828 5832 5835 5839 5842 5846 5850 5853 5856 5858 5860 5862 5865 5867 5869 5871 5872 5874 5875 5876 5877 5878 5879 5879 5879
5857 5858 5858 5857 5857 5856 5855 5853 5851 5847 5845 5842 5840 5837 5835 5832 5829 5827 5824 5822 5821 5821 5822 5824 5826 5829 5833 5836 5840 5844 5848 5851 5854 5856 5858 5860 5863 5866 5868 5870 5871 5873 5874 5875 5876 5877 5878 5878 5879
5854 5855 5855 5855 5854 5854 5853 5851 5850 5846 5844 5841 5839 5836 5834 5832 5829 5827 5824 5822 5821 5821 5821 5823 5825 5828 5831 5834 5838 5842 5845 5849 5852 5854 5857 5859 5862 5864 5866 5868 5870 5871 5873 5874 5875 5876 5877 5877 5878
5851 5852 5852 5852 5852 5853 5851 5849 5848 5845 5842 5840 5837 5835 5833 5831 5829 5827 5825 5823 5822 5821 5821 5822 5825 5827 5831 5833 5837 5840 5843 5847 5850 5852 5855 5857 5860 5862 5864 5866 5868 5869 5871 5872 5873 5874 5875 5876 5876
5848 5850 5850 5850 5850 5850 5849 5847 5847 5844 5841 5839 5836 5834 5833 5830 5828 5827 5825 5824 5822 5822 5821 5822 5824 5827 5830 5833 5836 5839 5842 5845 5848 5851 5854 5856 5858 5860 5862 5864 5866 5868 5869 5870 5871 5872 5873 5874 5874
5844 5846 5847 5848 5848 5847 5847 5845 5846 5843 5840 5838 5835 5834 5832 5829 5827 5826 5825 5824 5823 5822 5822 5823 5824 5826 5829 5832 5835 5838 5841 5844 5847 5850 5852 5854 5857 5858 5860 5862 5864 5865 5866 5868 5869 5869 5870 5871 5871
5841 5842 5844 5844 5844 5844 5844 5844 5844 5841 5839 5837 5835 5833 5831 5830 5828 5827 5825 5824 5823 5823 5823 5823 5824 5826 5828 5831 5834 5837 5839 5842 5845 5848 5850 5852 5854 5856 5858 5859 5861 5862 5863 5864 5865 5866 5867 5867 5868
5837 5839 5840 5841 5840 5841 5842 5842 5842 5840 5838 5836 5835 5833 5831 5830 5828 5827 5826 5825 5824 5824 5824 5824 5825 5826 5828 5830 5833 5835 5838 5841 5844 5846 5848 5850 5852 5853 5855 5856 5857 5859 5860 5861 5861 5862 5863 5863 5863
5832 5834 5835 5836 5837 5838 5838 5841 5839 5838 5836 5835 5833 5832 5830 5829 5828 5827 5826 5825 5825 5825 5825 5825 5825 5826 5828 5830 5832 5834 5837 5839 5841 5844 5845 5847 5849 5850 5851 5853 5854 5855 5855 5856 5857 5857 5858 5858 5858
5828 5829 5831 5832 5833 5834 5834 5839 5836 5835 5834 5833 5832 5830 5829 5828 5827 5827 5826 5825 5825 5825 5825 5825 5825 5826 5827 5829 5831 5833 5834 5836 5839 5841 5842 5844 5845 5846 5848 5849 5850 5850 5851 5851 5852 5852 5852 5852 5852